Track COSMOS 841 now! 10-day predictions COSMOS 841 is classified as:
1 09022U 76069A 21110.56957885 .00000033 00000-0 20442-4 0 9991 2 09022 74.0429 158.6594 0013406 339.0884 20.9718 14.35816322341963